Content
SEND FEEDBACK

Daily
Averages
Monthly
Summary
United States of America

HAZELWOOD, MISSOURI


Home > North America > United States > Missouri
Elevation: 570 feet     Latitude: 38 45N     Longitude: 090 22W

WEATHER
 
SELECT A DAY
Number of Records: 201,261;   Date Range: 1/1/95 - 12/19/14
 
SHARE

PRINT THIS DATA

[ ← Previous Day ]
WEATHER ALMANAC - MARCH 6, 2013
[ Next Day → ]
[ °C ]   °F
Weather ElementAverageHighLow
Temperature31.7 °F37.9 °F (2:54 pm)24.1 °F (10:54 pm)
Dewpoint20.8 °F21.9 °F (12:54 am)19 °F (9:54 pm)
Humidity64.8 %84 % (10:54 pm)52 % (3:54 pm)
Barometer30.33 in30.40 in (10:54 am)30.19 in (12:54 am)
Wind Speed10.7 mph19.6 mph (8:54 am)
Wind Gust29.9 mph (2:54 am)
Weather ElementAverage
Visibility10 mi
Wind DirectionWSW (247.6 °)

Weather ElementTotal
Precipitation---
Heating Degree Days34 (Base 65)
Averaged from 29 records on March 6, 2013
WEATHER CONDITIONS BREAKOUT
WIND DIRECTION BREAKOUT
WEATHER BY HOUR - MARCH 6, 2013
[ °C ]   °F
Local TimeTemperatureDewpointHumidityBarometerVisibilityWind DirectionWind SpeedGust SpeedPrecipitationEventsConditions
12:54 AM32.0 °F21.9 °F66 %30.19 in10.0 miNW (310°)18.4 mph25.3 mphOvercast
1:33 AM32.0 °F21.2 °F64 %30.19 in10.0 miNW (310°)16.1 mph27.6 mphOvercast
1:54 AM32.0 °F21.0 °F64 %30.22 in10.0 miWNW (300°)15.0 mph21.9 mphOvercast
2:54 AM30.9 °F21.0 °F67 %30.22 in10.0 miNW (310°)13.8 mph29.9 mphOvercast
3:54 AM30.9 °F21.0 °F67 %30.25 in10.0 miWNW (300°)18.4 mph24.2 mphOvercast
4:17 AM30.2 °F21.2 °F69 %30.24 in10.0 miNW (310°)12.7 mph20.7 mphOvercast
4:54 AM30.9 °F21.0 °F67 %30.29 in10.0 miNW (310°)16.1 mph21.9 mphOvercast
5:18 AM30.2 °F21.2 °F69 %30.27 in10.0 miNW (310°)15.0 mphOvercast
5:54 AM30.9 °F21.0 °F67 %30.32 in10.0 miNW (320°)13.8 mph20.7 mphOvercast
6:11 AM30.2 °F21.2 °F69 %30.29 in10.0 miNW (320°)9.2 mphOvercast
6:54 AM30.9 °F21.0 °F67 %30.34 in10.0 miNW (310°)16.1 mphOvercast
7:54 AM30.9 °F19.9 °F64 %30.37 in10.0 miNW (320°)18.4 mph23.0 mphOvercast
8:54 AM32.0 °F19.9 °F61 %30.38 in10.0 miNNW (330°)19.6 mph24.2 mphMostly Cloudy
9:54 AM35.1 °F21.9 °F59 %30.39 in10.0 miNW (320°)12.7 mphMostly Cloudy
10:54 AM34.0 °F21.0 °F59 %30.40 in10.0 miNNW (340°)15.0 mphOvercast
11:54 AM35.1 °F21.9 °F59 %30.39 in10.0 miNW (310°)12.7 mphOvercast
11:56 AM35.6 °F21.2 °F56 %30.37 in10.0 miNW (310°)10.4 mphMostly Cloudy
12:54 PM36.0 °F21.0 °F55 %30.38 in10.0 miNW (310°)9.2 mphOvercast
1:54 PM37.0 °F21.9 °F54 %30.37 in10.0 miNW (310°)11.5 mphOvercast
2:54 PM37.9 °F21.9 °F53 %30.38 in10.0 miWest (280°)8.1 mph18.4 mphMostly Cloudy
3:54 PM37.0 °F21.0 °F52 %30.37 in10.0 miVariable6.9 mphScattered Clouds
4:54 PM37.0 °F21.0 °F52 %30.37 in10.0 miWNW (290°)9.2 mphScattered Clouds
5:54 PM34.0 °F19.9 °F56 %30.37 in10.0 miWNW (300°)8.1 mphClear
6:54 PM30.9 °F19.9 °F64 %30.37 in10.0 miNorth (350°)3.5 mphClear
7:54 PM26.1 °F19.9 °F78 %30.37 in10.0 miCalmClear
8:54 PM27.0 °F19.9 °F75 %30.37 in10.0 miCalmClear
9:54 PM25.0 °F19.0 °F78 %30.38 in10.0 miCalmClear
10:54 PM24.1 °F19.9 °F84 %30.38 in10.0 miCalmClear
11:54 PM24.1 °F19.9 °F84 %30.38 in10.0 miCalmClear
Hourly data recorded from KSUS, located miles away from Hazelwood, Missouri







STORIES FROM OUR PARTNERS